Weather History for Provincetown, MA

Change the Weather History Date:

Sunday, March 24, 2013

  Actual Average Record
Temperature  
Mean Temperature 36 °F -  
Max Temperature 42 °F 43 °F 58 °F (1953)
Min Temperature 30 °F 32 °F 21 °F (2014)
Degree Days  
Heating Degree Days 29    
Moisture  
Dew Point 26 °F    
Average Humidity 64    
Maximum Humidity 93    
Minimum Humidity 46    
Precipitation  
Precipitation 0.00 in - - ()
Sea Level Pressure  
Sea Level Pressure 29.78 in    
Wind  
Wind Speed 15 mph (NW)    
Max Wind Speed 22 mph    
Max Gust Speed 32 mph    
Visibility 10 miles    
Events      
Averages and records for this station are not official NWS values.
T = Trace of Precipitation, MM = Missing Value Source: NWS Daily Summary

Daily Weather History Graph

Daily Weather History Graph

Search for Another Location

Airport:

Trip Planner

Search our weather history database for the weather conditions in past years. The results will help you decide how hot, cold, wet, or windy it might be!

Date:

Astronomy

Mar. 24, 2013 Rise Set
Actual Time 6:36 AM EDT 6:57 PM EDT
Civil Twilight 6:08 AM EDT 7:25 PM EDT
Nautical Twilight 5:36 AM EDT 7:58 PM EDT
Astronomical Twilight 5:02 AM EDT 8:32 PM EDT
Moon 4:20 PM EDT (3/24) 4:48 AM EDT (3/24)
Length of Visible Light 13h 16m
Length of Day
12h 20m
Waxing Gibbous, 91% of the Moon is Illuminated
Mar 24
Waxing Gibbous
Mar 27
Full
Apr 3
Last Quarter
Apr 10
New
Apr 18
First Quarter

Hourly Weather History & Observations

Time (EDT) Temp. Windchill Dew Point Humidity Pressure Visibility Wind Dir Wind Speed Gust Speed Precip Events Conditions
12:15 AM 37.4 °F 26.9 °F 23.0 °F 56% 29.76 in 10.0 mi WNW 20.7 mph 27.6 mph N/A   Clear
12:35 AM 37.4 °F 26.9 °F 23.0 °F 56% 29.76 in 10.0 mi WNW 20.7 mph 29.9 mph N/A   Clear
12:55 AM 37.4 °F 26.9 °F 24.8 °F 60% 29.75 in 10.0 mi WNW 20.7 mph 29.9 mph N/A   Clear
1:15 AM 37.4 °F 27.2 °F 23.0 °F 56% 29.76 in 10.0 mi WNW 19.6 mph 32.2 mph N/A   Clear
1:55 AM 35.6 °F 24.2 °F 23.0 °F 60% 29.76 in 10.0 mi WNW 21.9 mph 29.9 mph N/A   Clear
2:15 AM 35.6 °F 25.2 °F 23.0 °F 60% 29.77 in 10.0 mi WNW 18.4 mph 29.9 mph N/A   Clear
2:35 AM 35.6 °F 24.8 °F 21.2 °F 56% 29.77 in 10.0 mi WNW 19.6 mph 27.6 mph N/A   Clear
2:55 AM 35.6 °F 24.5 °F 24.8 °F 65% 29.77 in 10.0 mi West 20.7 mph 26.5 mph N/A   Clear
3:15 AM 35.6 °F 24.8 °F 23.0 °F 60% 29.76 in 10.0 mi West 19.6 mph - N/A   Clear
3:35 AM 35.6 °F 24.2 °F 21.2 °F 56% 29.76 in 10.0 mi West 21.9 mph 27.6 mph N/A   Clear
3:55 AM 35.6 °F 24.8 °F 23.0 °F 60% 29.76 in 10.0 mi WNW 19.6 mph 27.6 mph N/A   Clear
4:15 AM 35.6 °F 24.8 °F 23.0 °F 60% 29.75 in 10.0 mi West 19.6 mph 28.8 mph N/A   Clear
4:35 AM 35.6 °F 24.8 °F 23.0 °F 60% 29.75 in 10.0 mi West 19.6 mph 25.3 mph N/A   Clear
4:55 AM 35.6 °F 25.2 °F 23.0 °F 60% 29.75 in 10.0 mi West 18.4 mph - N/A   Clear
5:15 AM 33.8 °F 22.8 °F 23.0 °F 65% 29.76 in 10.0 mi WNW 18.4 mph - N/A   Clear
5:35 AM 33.8 °F 23.2 °F 21.2 °F 60% 29.77 in 10.0 mi WNW 17.3 mph 24.2 mph N/A   Clear
5:55 AM 33.8 °F 23.2 °F 24.8 °F 70% 29.76 in 10.0 mi NW 17.3 mph 21.9 mph N/A   Clear
6:15 AM 33.8 °F 23.2 °F 24.8 °F 70% 29.77 in 10.0 mi WNW 17.3 mph 21.9 mph N/A   Clear
6:35 AM 35.6 °F 25.9 °F 24.8 °F 65% 29.79 in 10.0 mi WNW 16.1 mph 23.0 mph N/A   Clear
6:55 AM 35.6 °F 26.2 °F 24.8 °F 65% 29.80 in 10.0 mi WNW 15.0 mph 24.2 mph N/A   Clear
7:15 AM 35.6 °F 25.9 °F 24.8 °F 65% 29.80 in 10.0 mi WNW 16.1 mph 21.9 mph N/A   Clear
7:35 AM 35.6 °F 25.2 °F 24.8 °F 65% 29.80 in 10.0 mi WNW 18.4 mph 23.0 mph N/A   Clear
8:15 AM 35.6 °F 25.5 °F 24.8 °F 65% 29.80 in 10.0 mi WNW 17.3 mph 23.0 mph N/A   Clear
8:35 AM 37.4 °F 28.2 °F 26.6 °F 65% 29.80 in 10.0 mi WNW 16.1 mph 21.9 mph N/A   Clear
9:15 AM 37.4 °F 27.5 °F 24.8 °F 60% 29.81 in 10.0 mi NW 18.4 mph 21.9 mph N/A   Clear
9:35 AM 37.4 °F 27.8 °F 26.6 °F 65% 29.81 in 10.0 mi NW 17.3 mph 23.0 mph N/A   Clear
9:55 AM 37.4 °F 28.2 °F 24.8 °F 60% 29.82 in 10.0 mi NW 16.1 mph 20.7 mph N/A   Clear
10:15 AM 39.2 °F 31.2 °F 26.6 °F 61% 29.82 in 10.0 mi NW 13.8 mph 19.6 mph N/A   Clear
10:35 AM 39.2 °F 30.5 °F 26.6 °F 61% 29.82 in 10.0 mi NW 16.1 mph - N/A   Clear
10:55 AM 39.2 °F 31.2 °F 24.8 °F 56% 29.82 in 10.0 mi NW 13.8 mph - N/A   Clear
11:15 AM 39.2 °F 31.6 °F 26.6 °F 61% 29.82 in 10.0 mi NW 12.7 mph - N/A   Clear
11:35 AM 41.0 °F 34.7 °F 24.8 °F 53% 29.82 in 10.0 mi NW 10.4 mph - N/A   Clear
12:15 PM 41.0 °F 34.7 °F 26.6 °F 57% 29.83 in 10.0 mi NW 10.4 mph - N/A   Clear
12:35 PM 41.0 °F 35.2 °F 24.8 °F 53% 29.82 in 10.0 mi NW 9.2 mph - N/A   Clear
12:55 PM 41.0 °F 35.8 °F 26.6 °F 57% 29.82 in 10.0 mi NW 8.1 mph - N/A   Clear
1:15 PM 41.0 °F 35.8 °F 26.6 °F 57% 29.81 in 10.0 mi NW 8.1 mph - N/A   Clear
1:35 PM 41.0 °F 35.8 °F 26.6 °F 57% 29.81 in 10.0 mi NNW 8.1 mph - N/A   Clear
1:55 PM 41.0 °F 36.4 °F 26.6 °F 57% 29.80 in 10.0 mi NW 6.9 mph - N/A   Clear
2:15 PM 41.0 °F 37.1 °F 26.6 °F 57% 29.80 in 10.0 mi NNW 5.8 mph - N/A   Clear
2:35 PM 41.0 °F 37.1 °F 24.8 °F 53% 29.79 in 10.0 mi North 5.8 mph - N/A   Clear
3:15 PM 42.8 °F 39.3 °F 26.6 °F 53% 29.78 in 10.0 mi NNE 5.8 mph - N/A   Clear
3:35 PM 42.8 °F 39.3 °F 26.6 °F 53% 29.77 in 10.0 mi NE 5.8 mph - N/A   Clear
3:55 PM 42.8 °F 41.1 °F 26.6 °F 53% 29.77 in 10.0 mi North 3.5 mph - N/A   Clear
4:15 PM 42.8 °F 38.6 °F 26.6 °F 53% 29.76 in 10.0 mi NE 6.9 mph - N/A   Clear
4:35 PM 41.0 °F 37.1 °F 24.8 °F 53% 29.76 in 10.0 mi NE 5.8 mph - N/A   Clear
4:55 PM 42.8 °F 39.3 °F 23.0 °F 46% 29.76 in 10.0 mi ENE 5.8 mph - N/A   Clear
5:15 PM 42.8 °F 40.1 °F 24.8 °F 49% 29.76 in 10.0 mi East 4.6 mph - N/A   Clear
5:55 PM 42.8 °F 39.3 °F 24.8 °F 49% 29.77 in 10.0 mi ENE 5.8 mph - N/A   Clear
6:15 PM 39.2 °F 33.0 °F 24.8 °F 56% 29.77 in 10.0 mi East 9.2 mph - N/A   Clear
6:35 PM 39.2 °F 33.0 °F 28.4 °F 65% 29.77 in 10.0 mi East 9.2 mph - N/A   Clear
6:55 PM 37.4 °F 31.4 °F 26.6 °F 65% 29.77 in 10.0 mi East 8.1 mph - N/A   Clear
7:15 PM 37.4 °F 33.8 °F 26.6 °F 65% 29.78 in 10.0 mi ESE 4.6 mph - N/A   Clear
7:35 PM 35.6 °F 32.8 °F 28.4 °F 75% 29.77 in 10.0 mi ESE 3.5 mph - N/A   Clear
8:15 PM 35.6 °F - 28.4 °F 75% 29.77 in 10.0 mi Calm Calm - N/A   Clear
8:35 PM 33.8 °F 30.8 °F 26.6 °F 75% 29.77 in 10.0 mi East 3.5 mph - N/A   Clear
8:55 PM 33.8 °F - 28.4 °F 81% 29.78 in 10.0 mi Calm Calm - N/A   Clear
9:15 PM 33.8 °F - 28.4 °F 81% 29.79 in 10.0 mi Calm Calm - N/A   Clear
9:35 PM 33.8 °F - 30.2 °F 87% 29.80 in 10.0 mi Calm Calm - N/A   Scattered Clouds
9:55 PM 32.0 °F - 28.4 °F 87% 29.80 in 10.0 mi Calm Calm - N/A   Partly Cloudy
10:35 PM 30.2 °F - 28.4 °F 93% 29.80 in 10.0 mi Calm Calm - N/A   Clear
10:55 PM 30.2 °F 26.7 °F 26.6 °F 86% 29.79 in 10.0 mi SSE 3.5 mph - N/A   Clear
11:15 PM 30.2 °F 25.4 °F 28.4 °F 93% 29.79 in 10.0 mi South 4.6 mph - N/A   Clear
11:35 PM 30.2 °F 26.7 °F 28.4 °F 93% 29.78 in 10.0 mi South 3.5 mph - N/A   Clear
11:55 PM 33.8 °F - 30.2 °F 87% 29.78 in 10.0 mi Calm Calm - N/A   Clear